Weather History for KTLH - March, 2013

Change the Weather History Date:

Friday, March 29, 2013

  Actual Average Record
Temperature  
Mean Temperature 56 °F 63 °F  
Max Temperature 76 °F 76 °F 89 °F (2007)
Min Temperature 36 °F 49 °F 32 °F (1955)
Degree Days  
Heating Degree Days 9    
Month to date heating degree days 301  
Since 1 July heating degree days 1279  
Cooling Degree Days 0    
Month to date cooling degree days 17  
Year to date cooling degree days 67  
Growing Degree Days 6 (Base 50)    
Moisture  
Dew Point 34 °F    
Average Humidity 52    
Maximum Humidity 85    
Minimum Humidity 18    
Precipitation  
Precipitation 0.00 in 0.17 in 2.11 in (1987)
Month to date precipitation 4.30 5.61  
Year to date precipitation 17.51 14.80  
Sea Level Pressure  
Sea Level Pressure 30.28 in    
Wind  
Wind Speed 3 mph (SSW)    
Max Wind Speed 16 mph    
Max Gust Speed 21 mph    
Visibility 10 miles    
Events      
T = Trace of Precipitation, MM = Missing Value Source: NWS Daily Summary

Daily Weather History Graph

Daily Weather History Graph

Search for Another Location

Airport or City:

Trip Planner

Search our weather history database for the weather conditions in past years. The results will help you decide how hot, cold, wet, or windy it might be!

Date:

Astronomy

Mar. 29, 2013 Rise Set
Actual Time 7:29 AM EDT 7:54 PM EDT
Civil Twilight 7:05 AM EDT 8:18 PM EDT
Nautical Twilight 6:37 AM EDT 8:46 PM EDT
Astronomical Twilight 6:09 AM EDT 9:15 PM EDT
Moon 10:39 PM EDT (3/29) 8:50 AM EDT (3/29)
Length of Visible Light 13h 12m
Length of Day
12h 24m
Waning Gibbous, 93% of the Moon is Illuminated
Mar 29
Waning Gibbous
Apr 3
Last Quarter
Apr 10
New
Apr 18
First Quarter
Apr 25
Full

Hourly Weather History & Observations

Time (EDT) Temp. Dew Point Humidity Pressure Visibility Wind Dir Wind Speed Gust Speed Precip Events Conditions
12:53 AM 45.0 °F 37.0 °F 74% 30.31 in 10.0 mi Calm Calm - N/A   Clear
1:53 AM 44.1 °F 36.0 °F 73% 30.31 in 10.0 mi Calm Calm - N/A   Clear
2:53 AM 41.0 °F 35.1 °F 79% 30.31 in 10.0 mi Calm Calm - N/A   Clear
3:53 AM 39.9 °F 35.1 °F 83% 30.30 in 10.0 mi Calm Calm - N/A   Clear
4:53 AM 39.0 °F 34.0 °F 82% 30.29 in 10.0 mi Calm Calm - N/A   Clear
5:53 AM 37.9 °F 34.0 °F 86% 30.30 in 10.0 mi Calm Calm - N/A   Clear
6:53 AM 37.0 °F 33.1 °F 86% 30.30 in 10.0 mi Calm Calm - N/A   Clear
7:53 AM 37.0 °F 33.1 °F 86% 30.32 in 10.0 mi Calm Calm - N/A   Clear
8:53 AM 46.0 °F 39.0 °F 76% 30.33 in 10.0 mi Calm Calm - N/A   Clear
9:53 AM 59.0 °F 41.0 °F 51% 30.34 in 10.0 mi Calm Calm - N/A   Clear
10:53 AM 64.0 °F 37.9 °F 38% 30.35 in 10.0 mi Calm Calm - N/A   Clear
11:53 AM 68.0 °F 28.0 °F 22% 30.33 in 10.0 mi East 3.5 mph - N/A   Clear
12:53 PM 71.1 °F 28.0 °F 20% 30.32 in 10.0 mi Calm Calm - N/A   Clear
1:53 PM 73.0 °F 28.0 °F 19% 30.29 in 10.0 mi Variable 4.6 mph - N/A   Clear
2:53 PM 75.0 °F 28.9 °F 18% 30.25 in 10.0 mi SW 6.9 mph - N/A   Clear
3:53 PM 75.0 °F 28.0 °F 18% 30.22 in 10.0 mi WSW 5.8 mph - N/A   Clear
4:53 PM 75.0 °F 32.0 °F 21% 30.21 in 10.0 mi SSW 10.4 mph - N/A   Clear
5:53 PM 72.0 °F 32.0 °F 23% 30.20 in 10.0 mi SSW 11.5 mph - N/A   Clear
6:53 PM 69.1 °F 34.0 °F 27% 30.22 in 10.0 mi SSW 12.7 mph - N/A   Clear
7:53 PM 64.0 °F 37.0 °F 37% 30.23 in 10.0 mi SSW 3.5 mph - N/A   Clear
8:53 PM 60.1 °F 37.0 °F 42% 30.24 in 10.0 mi SSW 3.5 mph - N/A   Clear
9:53 PM 55.0 °F 39.0 °F 55% 30.25 in 10.0 mi Variable 4.6 mph - N/A   Clear
10:53 PM 53.1 °F 39.0 °F 59% 30.27 in 10.0 mi Variable 3.5 mph - N/A   Clear
11:53 PM 52.0 °F 41.0 °F 66% 30.27 in 10.0 mi Calm Calm - N/A   Clear